Regional Weather Roundup
Issued by NWS Charleston, SC

Current Version | Previous Version | Text Only | Print | Product List | Glossary Off
Versions: 1 2 3 4 5 6 7 8 9 10 11 12 13 14 15 16 17 18 19 20 21 22 23 24 25 26 27 28 29 30 31 32 33 34 35 36 37 38 39 40 41 42 43 44 45 46 47 48 49 50
000 ASUS42 KCHS 290112 RWRCHS REGIONAL WEATHER ROUNDUP NATIONAL WEATHER SERVICE CHARLESTON SC 900 PM EDT FRI APR 28 2017 NOTE: "FAIR" INDICATES FEW OR NO CLOUDS BELOW 12,000 FEET WITH NO SIGNIFICANT WEATHER AND/OR OBSTRUCTIONS TO VISIBILITY. NOT ALL STATIONS ARE QUALITY CONTROLLED. USE DATA WITH CAUTION... ESPECIALLY DEWPOINT OBSERVATIONS. SCZ027-030-031-034>040-042>050-290200- ...SOUTHEAST SOUTH CAROLINA... CITY SKY/WX TMP DP RH WIND PRES REMARKS N CHARLESTON PTCLDY 76 72 87 S9 30.12R WATERFRONT PRK N/A 76 75 96 S9 30.10R JOHNS ISLAND CLOUDY 75 75 100 S6 30.12S PINOPOLIS N/A 79 73 83 VRB3 30.04R MONCKS CORNER FAIR 75 72 88 S5 30.11S SUMMERVILLE FAIR 77 72 83 S5 30.12R BEAUFORT MCAS CLEAR 77 75 93 S7 30.11R BEAUFORT ARPT FAIR 75 72 88 S6 30.11R HILTON HEAD IS CLEAR 75 75 100 S8G14 30.11S WALTERBORO CLEAR 75 72 88 SE7 30.11R ALLENDALE FAIR 81 73 78 SE9G15 30.07R ...SOUTHERN MIDLANDS AND PEE DEE... CITY SKY/WX TMP DP RH WIND PRES REMARKS GEORGETOWN CLOUDY 77 73 88 S9G16 30.14R KINGSTREE FAIR 77 70 78 SE6 30.10R ORANGEBURG LGT RAIN 79 73 82 SE7 30.09R BARNWELL FAIR 82 75 78 SE8 30.08R AIKEN FAIR 77 68 73 SE6 30.11R MANNING FAIR 77 72 83 S17 30.10R COLUMBIA CLEAR 84 69 60 S8 30.06R SUMTER CLEAR 81 72 74 S7 30.06R FLORENCE CLEAR 79 73 82 S12 30.09R MYRTLE BEACH NOT AVBL N MYRTLE BEACH PTCLDY 75 74 96 S15 30.12R $$ GAZ063-065-086>088-099>101-113>116-118-119-134>141-150-290200- ...SOUTHEAST GEORGIA... CITY SKY/WX TMP DP RH WIND PRES REMARKS SAVANNAH ARPT PTCLDY 78 70 76 S10 30.10R HUNTER AAF CLEAR 77 77 100 S7 30.08R FORT STEWART CLEAR 79 70 75 SE8 30.07R STATESBORO CLEAR 82 72 69 SE6 30.08R SYLVANIA CLEAR N/A N/A N/A SE5 30.09R CLAXTON FAIR 83 73 72 E5 30.07R ...CSRA...CENTRAL AND FAR SOUTHEAST GEORGIA... CITY SKY/WX TMP DP RH WIND PRES REMARKS THOMSON CLEAR 76 70 81 N5 30.11R AUGUSTA-BUSH CLEAR 80 70 71 SE7 30.04R AUGUSTA-DANIEL CLEAR 85 65 51 S3 30.07R SWAINSBORO FAIR 79 70 73 CALM 30.07R VIDALIA PTCLDY 84 70 61 SE6 30.07R EASTMAN FAIR 77 62 58 CALM 30.08R HAZLEHURST FAIR 81 73 75 CALM 30.05R ALMA CLOUDY 82 71 69 SE5 30.06R WAYCROSS CLOUDY 86 76 70 SE10 30.07R HX 96 JESUP FAIR 81 70 69 SE5 30.09R BAXLEY FAIR 84 75 74 SE6 30.07R HX 92 BRUNSWICK CLOUDY 79 75 89 S14 30.11R SAINT SIMONS CLEAR 77 73 87 SE12 30.10R $$ SCZ027-028-034-036>038-045-046-048>050-GAZ119-141-290200- ...LAKE AND SUPPLEMENTAL COASTAL OBSERVATIONS... STATION/POSITION TIME TEMP WIND PRES WAVE SWELL AIR SEA DIR/SP/G HT/PER HT/PER/DIR (UTC) (F) (DEG/KT/KT) (MB) (FT/S) (FT/S/D) WINYAH BAY 2345 78 190/ 8 1020.0 LAKE MURRAY 0020 79 160/ 6/ 6 1016.9 ACE BASIN NERRS 2345 76 160/ 1 1019.0 FORT PULASKI 0036 76 76 190/ 5/ 10 1019.6R SAPELO ISLAND 0000 78 160/ 11 1019.0 $$ ANZ835-935-AMZ111-154-330-350-352-354-370-450-454-472-290200- ...C-MAN AND BUOY OBSERVATIONS... STATION/POSITION TIME TEMP WIND PRES WAVE SWELL AIR SEA DIR/SP/G HT/PER HT/PER/DIR (UTC) (F) (DEG/KT/KT) (MB) (FT/S) (FT/S/D) BUOY 41004 0050 75 74 170/ 10/ 12 1020.1R 4/ 6 3/150/ 6 BUOY 41008 2350 75 74 160/ 14/ 16 1018.5 3/ 5 2/110/ 8 FOLLY BEACH CMAN 0000 76 160/ 7/ 8 1020.4R CAPERS NEARSHORE 0008 75 76 170/ 6/ 10 1019.7R FRIPP NEARSHORE 0008 75 75 170/ 14/ 16 1018.8R STATION/POSITION TIME TEMP WIND PRES WAVE SWELL AIR SEA DIR/SP/G HT/PER HT/PER/DIR (UTC) (F) (DEG/KT/KT) (MB) (FT/S) (FT/S/D) 5E ST. MARYS GA 0030 74 N/A 3/ 4 FRYING PAN BUOY 0050 75 74 180/ 8/ 10 1020.6R 3/ 8 3/100/ 8 BUOY 41025 0050 77 76 210/ 16/ 17 1020.8R 4/ 8 3/120/ 8 CAPE LOOKOUT NC 0000 74 190/ 8/ 11 1020.1R BUOY 41002 2350 75 76 170/ 8/ 8 1023.4 4/ 8 3/ 70/ 8 BUOY 41010 0050 78 130/ 10/ 12 1021.0R 4/ 7 3/100/ 7 ST AUGUSTINE FL 0100 76 79 150/ 17/ 19 1020.0R $$

USA.gov is the U.S. government's official web portal to all federal, state and local government web resources and services.